COSMOS 2251 DEB, 33789

Orbit data source: Space-Track

COSMOS 2251 DEB, 33789 is space debris in LEO originally from a launch on Wed, 16 Jun 1993 UTC launched from the Plesetsk Missile And Space Complex (PKMTR). The debris from Iridium 33, an American commercial communications satellite, has been tracked extensively since its accidental collision with the defunct Russian satellite Cosmos 2251 in 2009. This event, occurring at high speed in low Earth orbit (LEO), generated thousands of pieces of space debris, significantly increasing the risk of further collisions. The Iridium 33 debris cloud has impacted space traffic management and orbital debris mitigation strategies, making it a subject of ongoing study in space situational awareness.

Loading next visibility...
Identifier
33789, 1993-036AE
Orbit
LEO
Country
Flag of CISCIS
Related business
Manufacturer
Unknown
Mission
Spacecraft
Bus & Motor
Unknown
Mass
Unknown
Launch date (UTC)
1993-06-16 (33 years ago)
Launch vehicle
Unknown
Launch site
Plesetsk Missile And Space Complex (PKMTR)
Object type
Payload
Rocket body
Debris
Shape & HBR
Unknown shape, 0.2 m
Radar Cross Section
Medium (>0.1 m² and <1 m²)

Expand to show TLE details & history
Last TLE update: 8 hours ago

TLE from 8 hours ago
0 COSMOS 2251 DEB
1 33789U 93036AE  26237.68245190  .00000131  00000-0  99791-4 0  9990
2 33789  74.0648  12.8897 0239745  68.4935 305.2303 13.89104389886498
Epoch: 2026-08-25T16:22Z
TLE epoch observation values (Epoch: 2026-08-25T16:22:43.844Z)
Latitude
10.95358°
Longitude
156.41167°
Altitude
835.322 km
Speed
7.486 km/s
True Right ascension
01h 04m 09s
True Declination
10° 53' 25"
Sunlit
Object was in full shadow at epoch
Visualization orbit readout
Latitude
Unknown
Longitude
Unknown
Altitude
Unknown
Speed
Unknown
Apparent Right ascension
Unknown
Apparent Declination
Unknown
Sunlit
N/A
Visualization observer readout
Local Sidereal Time
15:33:02
Azimuth
Unknown
Elevation
Unknown
Doppler factor
Unknown
Orbital elements
Apogee altitude
1,104.638 km
Perigee altitude
754.247 km
Semi-major axis
7,307.58 km
Eccentricity
0.02397
Inclination
74.0648°
RAAN
12.8897°
Arg. of periapsis
68.4935°
True anomaly
302.94737°
Mean anomaly
305.2303°
Eccentric anomaly
304.09275°
Mean motion
3.47442 °/min
Orbital period
103.61 mins
BSTAR
0.000099791
Loading maneuver chart data...
Computing Atmospheric mass density...

Documentation

Showing up to 5 results
|